RH
28 27 28 23 23 25 22 23 22 20 19 20 23 23 23 25 28 29 23 24 26 28 30 32 33 34 36 37 38 37 36 36 35 35 35 35 34 35
32 33 30 28 26 30 30 33 27 24 22 21 24 25 23 26 28 28 24 26 28 30 31 32 34 36 38 40 41 40 39 39 38 37 36 35 35 35
34 40 31 33 31 30 31 32 30 25 23 22 25 27 24 25 25 25 26 28 30 30 32 34 37 39 40 41 43 43 43 42 41 39 39 38 37 36
45 41 37 33 34 32 32 33 31 31 25 24 25 24 23 25 26 27 28 29 31 33 34 37 41 40 42 45 46 47 46 46 45 42 42 40 38 37
47 45 39 36 38 38 42 38 39 34 30 28 26 24 24 25 27 27 30 32 33 34 35 37 40 40 45 47 49 50 50 49 47 46 44 42 41 40
53 47 41 39 44 43 43 44 40 35 33 29 26 25 25 28 30 32 32 35 37 39 41 41 42 45 48 54 56 55 52 53 51 48 46 45 43 41
50 48 46 45 44 48 40 40 39 34 32 29 29 28 28 33 37 35 37 41 40 43 47 48 48 49 54 59 59 57 56 57 53 49 47 46 45 43
61 54 51 52 54 50 49 48 39 34 35 38 37 36 35 36 39 42 43 46 47 48 50 50 51 50 54 60 59 59 62 60 56 53 49 48 48 44
84 88 88 80 79 81 81 75 65 54 51 48 46 47 50 46 47 48 50 51 53 55 48 48 49 51 54 62 65 67 65 61 57 53 51 52 48 42
98 95 90 85 81 79 78 70 65 63 65 64 58 57 56 55 56 58 59 59 57 55 54 50 56 58 61 71 75 72 66 61 58 54 54 53 48 43
98 91 81 75 74 78 71 67 66 62 63 63 62 60 59 57 57 60 60 60 60 58 56 56 58 61 63 70 72 64 65 63 59 56 53 50 47 41
91 86 84 85 81 74 71 71 69 70 72 71 70 72 70 66 65 67 63 62 63 60 60 61 66 64 59 55 61 65 63 62 58 53 48 48 44 36
94 93 92 92 90 87 84 81 81 78 76 74 73 74 74 71 68 65 64 66 65 67 64 66 67 68 61 52 53 62 57 56 52 46 44 40 37 33
95 95 96 95 93 92 91 92 90 86 80 79 72 73 74 74 73 72 71 72 73 75 76 71 67 62 60 58 55 58 53 52 46 43 38 35 32 30
94 96 97 96 96 96 97 97 92 88 82 82 78 77 77 78 78 78 75 76 80 81 79 71 66 65 65 63 55 52 46 44 42 38 35 33 32 28
87 87 87 89 91 91 89 90 89 90 89 86 84 79 77 78 78 75 74 76 79 84 82 75 68 67 68 64 56 48 45 41 36 35 33 32 32 30
83 82 83 85 90 89 87 84 84 85 85 85 83 80 79 80 80 76 76 75 78 77 76 74 70 68 65 60 54 45 42 40 38 35 31 32 34 31
76 78 79 81 80 78 79 81 83 81 83 82 80 81 82 78 76 77 80 82 80 79 78 72 68 64 62 61 50 42 43 38 36 33 32 32 29 30
80 79 77 78 77 78 79 79 78 80 80 81 82 83 86 84 82 82 83 80 81 76 72 68 63 59 56 53 54 42 40 36 33 33 31 34 31 27
81 80 81 83 83 83 83 84 85 85 85 86 85 84 83 85 84 81 78 78 73 71 69 63 59 58 54 52 48 46 39 35 33 31 30 32 31 30
86 86 86 86 85 84 86 86 83 81 79 77 79 78 80 80 79 77 74 71 70 68 67 61 59 56 51 48 45 40 38 37 33 31 33 33 30 29
87 84 82 82 84 84 83 85 83 81 79 80 78 76 76 73 72 69 69 70 67 65 63 61 57 53 48 48 45 40 37 33 32 31 35 39 39 36
86 85 86 85 84 82 84 86 83 83 79 76 76 75 71 69 67 65 64 64 64 65 63 59 52 51 48 44 44 41 37 32 30 29 29 32 35 40